EW1335 Weather Reports


time (UTC)temp
C
wind
direction
speed
KPH
gust
KPH
rain 1hr
cm
rain 24hr
cm
rain mn
cm
humidity
%
barometer
mb
20260504050450 6 54 0.0 4.8 0.00 0.08 0.00 95 1007.8
20260504045948 6 293 0.0 6.4 0.00 0.08 0.00 95 1007.9
20260504044948 6 125 1.6 3.2 0.00 0.08 0.00 95 1007.9
20260504044448 6 169 0.0 0.0 0.00 0.08 0.00 95 1008.1
20260504043949 6 169 0.0 0.0 0.00 0.08 0.00 95 1008.1
20260504043448 6 169 0.0 3.2 0.00 0.08 0.00 94 1008.1
20260504042448 6 99 0.0 4.8 0.00 0.08 0.00 94 1008.0
20260504041949 6 101 0.0 3.2 0.00 0.08 0.00 94 1008.0
20260504041448 6 103 0.0 3.2 0.00 0.08 0.00 94 1008.0
20260504040948 6 178 3.2 4.8 0.00 0.08 0.00 94 1008.0
20260504040447 6 240 1.6 6.4 0.00 0.08 0.00 94 1008.0
20260504035949 6 211 0.0 6.4 0.03 0.08 0.00 94 1007.9
20260504035447 6 134 0.0 4.8 0.03 0.08 0.08 94 1008.0
20260504034947 6 45 0.0 4.8 0.03 0.08 0.08 94 1008.0
20260504034447 6 150 0.0 1.6 0.03 0.08 0.08 94 1008.0
20260504033947 6 194 0.0 3.2 0.03 0.08 0.08 94 1008.0
20260504033447 6 219 0.0 4.8 0.05 0.08 0.08 93 1008.0
20260504032949 6 326 0.0 4.8 0.05 0.08 0.08 93 1008.1
20260504032447 6 84 1.6 4.8 0.05 0.08 0.08 93 1008.0
20260504031947 6 137 0.0 11.3 0.05 0.08 0.08 92 1008.1
20260504031447 6 224 0.0 11.3 0.05 0.08 0.08 92 1008.1
20260504030947 6 25 1.6 6.4 0.05 0.08 0.08 91 1008.2
20260504030447 6 122 1.6 6.4 0.05 0.08 0.08 91 1008.2
20260504025947 6 157 1.6 6.4 0.03 0.05 0.05 91 1008.2
20260504025448 6 176 1.6 3.2 0.03 0.05 0.05 90 1008.0
20260504024946 6 122 0.0 8.0 0.03 0.05 0.05 90 1008.0
20260504022948 6 97 0.0 1.6 0.03 0.03 0.03 90 1008.2
20260504022447 6 89 0.0 0.0 0.03 0.03 0.03 90 1008.3
20260504021946 6 89 0.0 1.6 0.03 0.03 0.03 89 1008.3
20260504021447 6 89 0.0 1.6 0.03 0.03 0.03 89 1008.5
20260504020948 6 89 0.0 0.0 0.03 0.03 0.03 88 1008.6
20260504020446 6 91 0.0 1.6 0.03 0.03 0.03 87 1008.6
20260504015946 7 91 0.0 1.6 0.03 0.03 0.03 85 1008.5
20260504015446 7 115 0.0 1.6 0.03 0.03 0.03 82 1008.6
20260504014948 7 169 0.0 4.8 0.03 0.03 0.03 77 1008.8
20260504014446 8 221 0.0 9.7 0.00 0.00 0.00 71 1008.6
20260504013946 8 64 0.0 9.7 0.00 0.00 0.00 66 1008.7
20260504013446 8 255 1.6 6.4 0.00 0.00 0.00 63 1008.6
20260504012947 8 53 6.4 6.4 0.00 0.00 0.00 63 1008.6
20260504012446 8 109 0.0 4.8 0.00 0.00 0.00 59 1008.5
20260504011446 8 39 0.0 14.5 0.00 0.00 0.00 57 1008.4
20260504010947 8 337 0.0 14.5 0.00 0.00 0.00 55 1008.4
20260504005946 8 75 1.6 8.0 0.00 0.00 0.00 54 1008.3
20260504005446 8 139 0.0 8.0 0.00 0.00 0.00 53 1008.3
20260504004445 8 288 1.6 12.9 0.00 0.00 0.00 52 1008.2
20260504003446 8 12 1.6 3.2 0.00 0.00 0.00 52 1008.3
20260504002947 8 59 0.0 4.8 0.00 0.00 0.00 51 1008.2
20260504002446 8 59 0.0 8.0 0.00 0.00 0.00 50 1008.2
20260504001945 8 164 0.0 8.0 0.00 0.00 0.00 50 1008.2
20260504001445 8 262 0.0 9.7 0.00 0.00 0.00 49 1008.2
20260504000945 8 32 6.4 17.7 0.00 0.00 0.00 49 1008.2
20260504000445 8 279 3.2 17.7 0.00 0.00 0.00 48 1008.2
20260503235945 9 58 1.6 8.0 0.00 0.00 0.00 48 1008.1
20260503235446 9 260 0.0 8.0 0.00 0.00 0.00 48 1008.1
20260503234945 9 248 0.0 8.0 0.00 0.00 0.00 49 1008.2
20260503234445 9 291 6.4 9.7 0.00 0.00 0.00 48 1008.1
20260503233945 9 155 1.6 9.7 0.00 0.00 0.00 49 1008.1
20260503233445 9 295 6.4 11.3 0.00 0.00 0.00 48 1008.1
20260503232945 9 270 0.0 11.3 0.00 0.00 0.00 49 1008.1
20260503232445 9 225 6.4 6.4 0.00 0.00 0.00 47 1008.0
20260503231945 9 127 0.0 6.4 0.00 0.00 0.00 47 1008.2
20260503231446 9 244 0.0 9.7 0.00 0.00 0.00 48 1008.1
20260503230444 9 223 3.2 12.9 0.00 0.00 0.00 48 1008.1
20260503225945 9 143 0.0 12.9 0.00 0.00 0.00 46 1008.2
20260503224444 10 113 3.2 9.7 0.00 0.00 0.00 47 1008.2
20260503223945 10 284 3.2 8.0 0.00 0.00 0.00 46 1008.2
20260503223445 10 309 6.4 12.9 0.00 0.00 0.00 46 1008.3
20260503222444 11 25 6.4 14.5 0.00 0.00 0.00 43 1008.3
20260503221944 11 200 3.2 14.5 0.00 0.00 0.00 42 1008.4
20260503221444 11 237 4.8 12.9 0.00 0.00 0.00 41 1008.4
20260503220944 11 233 4.8 17.7 0.00 0.00 0.00 42 1008.4
20260503220444 11 28 8.0 17.7 0.00 0.00 0.00 41 1008.3
20260503215445 11 336 6.4 20.9 0.00 0.00 0.00 42 1008.4
20260503214944 11 211 4.8 20.9 0.00 0.00 0.00 42 1008.5
20260503214444 11 258 4.8 16.1 0.00 0.00 0.00 42 1008.5
20260503213444 11 237 3.2 14.5 0.00 0.00 0.00 40 1008.4
20260503212944 11 10 1.6 19.3 0.00 0.00 0.00 41 1008.4
20260503212444 11 217 11.3 19.3 0.00 0.00 0.00 43 1008.5
20260503211944 11 187 0.0 17.7 0.00 0.00 0.00 41 1008.7
20260503211444 11 295 6.4 17.7 0.00 0.00 0.00 40 1008.5
20260503210444 11 290 6.4 24.1 0.00 0.00 0.00 38 1008.5
20260503205445 11 257 8.0 24.1 0.00 0.00 0.00 40 1008.3
20260503204444 11 301 17.7 24.1 0.00 0.00 0.00 38 1008.5
20260503203444 11 322 12.9 19.3 0.00 0.00 0.00 38 1008.7
20260503202943 11 309 9.7 19.3 0.00 0.00 0.00 37 1008.8
20260503202443 11 26 8.0 17.7 0.00 0.00 0.00 36 1008.7
20260503201944 11 295 9.7 17.7 0.00 0.00 0.00 37 1008.7
20260503201443 11 304 4.8 17.7 0.00 0.00 0.00 38 1008.7
20260503200943 11 319 17.7 17.7 0.00 0.00 0.00 37 1008.8
20260503195443 11 295 14.5 27.4 0.00 0.00 0.00 38 1008.8
20260503194943 11 6 8.0 27.4 0.00 0.00 0.00 39 1008.8
20260503194443 10 179 4.8 16.1 0.00 0.00 0.00 42 1008.8
20260503193943 10 330 6.4 16.1 0.00 0.00 0.00 41 1008.9
20260503192945 12 302 14.5 19.3 0.00 0.00 0.00 38 1009.1
20260503192443 12 259 8.0 14.5 0.00 0.00 0.00 39 1009.2
20260503191943 11 181 3.2 20.9 0.00 0.00 0.00 41 1009.2
20260503191443 11 281 3.2 20.9 0.00 0.00 0.00 40 1009.1
20260503190944 11 345 8.0 20.9 0.00 0.00 0.00 42 1009.3
20260503190443 11 271 8.0 20.9 0.00 0.00 0.00 42 1009.2
20260503185443 11 231 12.9 14.5 0.00 0.00 0.00 43 1009.4
20260503184943 10 11 3.2 14.5 0.00 0.00 0.00 42 1009.3
20260503184443 10 50 4.8 20.9 0.00 0.00 0.00 43 1009.4
20260503182942 10 317 11.3 25.7 0.00 0.00 0.00 45 1009.5
20260503182444 10 322 8.0 25.7 0.00 0.00 0.00 45 1009.6
20260503181942 9 302 4.8 12.9 0.00 0.00 0.00 48 1009.5
20260503180942 9 295 6.4 14.5 0.00 0.00 0.00 46 1009.6
20260503180444 9 215 3.2 12.9 0.00 0.00 0.00 46 1009.6
20260503175442 9 225 9.7 17.7 0.00 0.00 0.00 44 1009.7
20260503174942 9 250 6.4 11.3 0.00 0.00 0.00 43 1009.6
20260503174442 9 358 4.8 14.5 0.00 0.00 0.00 44 1009.8
20260503173943 9 285 9.7 19.3 0.00 0.00 0.00 42 1009.7
20260503173442 9 280 3.2 19.3 0.00 0.00 0.00 44 1009.8
20260503172942 9 281 4.8 16.1 0.00 0.00 0.00 44 1009.8
20260503172442 9 335 9.7 16.1 0.00 0.00 0.00 43 1009.8
20260503171942 8 247 3.2 19.3 0.00 0.00 0.00 45 1009.9
20260503171442 8 210 3.2 19.3 0.00 0.00 0.00 44 1009.9
20260503170942 8 220 3.2 20.9 0.00 0.00 0.00 44 1009.8
20260503170442 9 321 11.3 20.9 0.00 0.00 0.00 44 1009.9
20260503150940 7 255 1.6 20.9 0.00 0.00 0.00 50 1011.0
20260503150442 7 322 12.9 20.9 0.00 0.00 0.00 50 1011.0
20260503130940 6 171 0.0 11.3 0.00 0.00 0.00 69 1011.8
20260503130440 5 271 0.0 11.3 0.00 0.00 0.00 69 1011.7
20260503090438 1 79 0.0 0.0 0.00 0.00 0.00 94 1011.3
20260503081437 1 79 0.0 0.0 0.00 0.00 0.00 94 1011.5
20260503080937 1 79 0.0 0.0 0.00 0.00 0.00 94 1011.6
20260503080437 1 79 0.0 0.0 0.00 0.00 0.00 93 1011.6
20260503072937 2 79 0.0 0.0 0.00 0.00 0.00 92 1011.5
20260503072437 2 79 0.0 0.0 0.00 0.00 0.00 93 1011.5
20260503071938 2 79 0.0 0.0 0.00 0.00 0.00 92 1011.5
20260503071437 2 79 0.0 0.0 0.00 0.00 0.00 92 1011.5
20260503070936 2 79 0.0 0.0 0.00 0.00 0.00 92 1011.6
20260503070436 2 79 0.0 0.0 0.00 0.00 0.00 92 1011.6
20260503054936 2 124 0.0 0.0 0.00 0.00 0.00 92 1011.7
20260503054436 2 123 0.0 0.0 0.00 0.00 0.00 92 1011.8